When you browse on this site, cookies collect data to enhance your experience and personalize the content and advertising you see.
Visit our Privacy Policy to learn more. By continuing to use the site, you agree to this use of cookies and data.
  • In Czech Republic
  • List of Countries
  • For 7 days
  • Water Temperature
  • Weather Map
  • Weather Widgets
  • user-avatar
    Login

    Hourly Weather Chakhansur

    Today, 23 September, Monday

    Time Temperature Precipitation Wind Pressure Humidity
    00:00 +27°C° 0 mm 7 mps 715 mmHg 31%
    01:00 +26°C° 0 mm 9 mps 715 mmHg 43%
    02:00 +24°C° 0 mm 9 mps 716 mmHg 45%
    03:00 +23°C° 0 mm 9 mps 716 mmHg 46%
    04:00 +22°C° 0 mm 9 mps 716 mmHg 48%
    05:00 +22°C° 0 mm 9 mps 716 mmHg 48%
    06:00 +22°C° 0 mm 8 mps 717 mmHg 47%
    07:00 +22°C° 0 mm 8 mps 717 mmHg 46%
    08:00 +24°C° 0 mm 7 mps 718 mmHg 40%
    09:00 +28°C° 0 mm 6 mps 718 mmHg 34%
    10:00 +30°C° 0 mm 5 mps 718 mmHg 28%
    11:00 +33°C° 0 mm 4 mps 718 mmHg 24%
    12:00 +35°C° 0 mm 4 mps 718 mmHg 20%
    13:00 +38°C° 0 mm 3 mps 717 mmHg 15%
    14:00 +38°C° 0 mm 2 mps 717 mmHg 14%
    15:00 +39°C° 0 mm 2 mps 716 mmHg 12%
    16:00 +40°C° 0 mm 1 mps 716 mmHg 11%
    17:00 +36°C° 0 mm 2 mps 716 mmHg 14%
    18:00 +32°C° 0 mm 2 mps 715 mmHg 18%
    19:00 +29°C° 0 mm 2 mps 715 mmHg 21%
    20:00 +28°C° 0 mm 2 mps 715 mmHg 24%
    21:00 +27°C° 0 mm 3 mps 716 mmHg 27%
    22:00 +27°C° 0 mm 4 mps 716 mmHg 30%
    23:00 +26°C° 0 mm 3 mps 715 mmHg 33%

    Tomorrow, 24 September, Tuesday

    Time Temperature Precipitation Wind Pressure Humidity
    00:00 +25°C° 0 mm 3 mps 715 mmHg 36%
    01:00 +24°C° 0 mm 3 mps 715 mmHg 39%
    02:00 +22°C° 0 mm 3 mps 715 mmHg 42%
    03:00 +21°C° 0 mm 2 mps 715 mmHg 44%
    04:00 +21°C° 0 mm 2 mps 715 mmHg 46%
    05:00 +23°C° 0 mm 2 mps 715 mmHg 43%
    06:00 +24°C° 0 mm 2 mps 716 mmHg 41%
    07:00 +25°C° 0 mm 2 mps 716 mmHg 38%
    08:00 +27°C° 0 mm 2 mps 717 mmHg 33%
    09:00 +30°C° 0 mm 1 mps 717 mmHg 27%
    10:00 +33°C° 0 mm 1 mps 717 mmHg 22%
    11:00 +35°C° 0 mm 1 mps 717 mmHg 18%
    12:00 +36°C° 0 mm 1 mps 716 mmHg 15%
    13:00 +39°C° 0 mm 1 mps 716 mmHg 11%
    14:00 +40°C° 0 mm 1 mps 715 mmHg 10%
    15:00 +40°C° 0 mm 1 mps 715 mmHg 9%
    16:00 +41°C° 0 mm 1 mps 715 mmHg 8%
    17:00 +36°C° 0 mm 1 mps 715 mmHg 10%
    18:00 +33°C° 0 mm 1 mps 714 mmHg 12%
    19:00 +30°C° 0 mm 2 mps 714 mmHg 14%
    20:00 +29°C° 0 mm 1 mps 714 mmHg 15%
    21:00 +28°C° 0 mm 1 mps 714 mmHg 16%
    22:00 +27°C° 0 mm 1 mps 714 mmHg 17%
    23:00 +27°C° 0 mm 1 mps 714 mmHg 17%

    Day after tomorrow, 25 September, Wednesday

    Time Temperature Precipitation Wind Pressure Humidity
    00:00 +27°C° 0 mm 1 mps 714 mmHg 17%
    01:00 +27°C° 0 mm 2 mps 714 mmHg 18%
    02:00 +26°C° 0 mm 2 mps 714 mmHg 21%
    03:00 +25°C° 0 mm 2 mps 714 mmHg 24%
    04:00 +24°C° 0 mm 3 mps 714 mmHg 26%
    05:00 +24°C° 0 mm 2 mps 715 mmHg 25%
    06:00 +25°C° 0 mm 2 mps 715 mmHg 24%
    07:00 +26°C° 0 mm 2 mps 716 mmHg 23%
    08:00 +29°C° 0 mm 2 mps 717 mmHg 19%
    09:00 +32°C° 0 mm 2 mps 717 mmHg 16%
    10:00 +36°C° 0 mm 2 mps 718 mmHg 12%
    11:00 +38°C° 0 mm 2 mps 717 mmHg 11%
    12:00 +39°C° 0 mm 1 mps 717 mmHg 9%
    13:00 +41°C° 0 mm 1 mps 717 mmHg 8%
    14:00 +42°C° 0 mm 1 mps 716 mmHg 7%
    15:00 +42°C° 0 mm 1 mps 716 mmHg 7%
    16:00 +43°C° 0 mm 1 mps 716 mmHg 7%
    17:00 +39°C° 0 mm 1 mps 715 mmHg 9%
    18:00 +34°C° 0 mm 1 mps 715 mmHg 11%
    19:00 +31°C° 0 mm 1 mps 715 mmHg 13%
    20:00 +30°C° 0 mm 1 mps 715 mmHg 13%
    21:00 +30°C° 0 mm 1 mps 715 mmHg 13%
    22:00 +29°C° 0 mm 1 mps 716 mmHg 14%
    23:00 +28°C° 0 mm 1 mps 715 mmHg 14%

    26 September, Thursday

    Time Temperature Precipitation Wind Pressure Humidity
    00:00 +28°C° 0 mm 1 mps 715 mmHg 15%
    01:00 +27°C° 0 mm 1 mps 715 mmHg 15%
    02:00 +27°C° 0 mm 1 mps 715 mmHg 16%
    03:00 +26°C° 0 mm 1 mps 715 mmHg 16%
    04:00 +26°C° 0 mm 1 mps 716 mmHg 17%
    05:00 +27°C° 0 mm 1 mps 716 mmHg 16%
    06:00 +28°C° 0 mm 1 mps 717 mmHg 15%
    07:00 +29°C° 0 mm 1 mps 717 mmHg 14%
    08:00 +32°C° 0 mm 1 mps 718 mmHg 12%
    09:00 +36°C° 0 mm 2 mps 718 mmHg 10%
    10:00 +39°C° 0 mm 2 mps 719 mmHg 8%
    11:00 +41°C° 0 mm 2 mps 718 mmHg 8%
    12:00 +42°C° 0 mm 2 mps 718 mmHg 7%
    13:00 +45°C° 0 mm 2 mps 717 mmHg 7%
    14:00 +45°C° 0 mm 2 mps 717 mmHg 6%
    15:00 +45°C° 0 mm 2 mps 716 mmHg 6%
    16:00 +45°C° 0 mm 2 mps 716 mmHg 6%
    17:00 +40°C° 0 mm 2 mps 716 mmHg 8%
    18:00 +37°C° 0 mm 2 mps 715 mmHg 10%
    19:00 +32°C° 0 mm 2 mps 715 mmHg 12%
    20:00 +31°C° 0 mm 1 mps 715 mmHg 13%
    21:00 +30°C° 0 mm 1 mps 715 mmHg 14%
    22:00 +29°C° 0 mm 1 mps 715 mmHg 15%
    23:00 +30°C° 0 mm 1 mps 715 mmHg 15%

    27 September, Friday

    Time Temperature Precipitation Wind Pressure Humidity
    00:00 +30°C° 0 mm 2 mps 715 mmHg 14%
    01:00 +30°C° 0 mm 3 mps 715 mmHg 14%
    02:00 +29°C° 0 mm 2 mps 715 mmHg 16%
    03:00 +27°C° 0 mm 2 mps 715 mmHg 19%
    04:00 +26°C° 0 mm 1 mps 715 mmHg 21%
    05:00 +28°C° 0 mm 2 mps 715 mmHg 19%
    06:00 +29°C° 0 mm 2 mps 716 mmHg 17%
    07:00 +31°C° 0 mm 2 mps 717 mmHg 15%
    08:00 +35°C° 0 mm 2 mps 717 mmHg 12%
    09:00 +38°C° 0 mm 3 mps 717 mmHg 9%
    10:00 +42°C° 0 mm 3 mps 718 mmHg 7%
    11:00 +43°C° 0 mm 3 mps 717 mmHg 6%
    12:00 +45°C° 0 mm 3 mps 717 mmHg 5%
    13:00 +48°C° 0 mm 4 mps 716 mmHg 4%
    14:00 +48°C° 0 mm 4 mps 716 mmHg 4%
    15:00 +48°C° 0 mm 4 mps 715 mmHg 4%
    16:00 +48°C° 0 mm 4 mps 715 mmHg 4%
    17:00 +44°C° 0 mm 4 mps 714 mmHg 5%
    18:00 +39°C° 0 mm 3 mps 714 mmHg 6%
    19:00 +35°C° 0 mm 3 mps 714 mmHg 8%
    20:00 +35°C° 0 mm 3 mps 714 mmHg 8%
    21:00 +34°C° 0 mm 3 mps 714 mmHg 9%
    22:00 +33°C° 0 mm 3 mps 714 mmHg 9%
    23:00 +31°C° 0 mm 3 mps 714 mmHg 10%

    28 September, Saturday

    Time Temperature Precipitation Wind Pressure Humidity
    00:00 +31°C° 0 mm 3 mps 713 mmHg 11%
    01:00 +30°C° 0 mm 3 mps 713 mmHg 12%
    02:00 +29°C° 0 mm 4 mps 713 mmHg 12%
    03:00 +29°C° 0 mm 4 mps 713 mmHg 13%
    04:00 +28°C° 0 mm 4 mps 713 mmHg 14%
    05:00 +29°C° 0 mm 3 mps 713 mmHg 14%
    06:00 +29°C° 0 mm 2 mps 713 mmHg 13%
    07:00 +30°C° 0 mm 2 mps 713 mmHg 13%
    08:00 +34°C° 0 mm 2 mps 714 mmHg 11%
    09:00 +37°C° 0 mm 3 mps 714 mmHg 8%
    10:00 +42°C° 0 mm 3 mps 714 mmHg 6%
    11:00 +43°C° 0 mm 3 mps 714 mmHg 5%
    12:00 +45°C° 0 mm 4 mps 713 mmHg 5%
    13:00 +48°C° 0 mm 4 mps 713 mmHg 4%
    14:00 +48°C° 0 mm 5 mps 712 mmHg 4%
    15:00 +48°C° 0 mm 5 mps 712 mmHg 4%
    16:00 +48°C° 0 mm 6 mps 711 mmHg 3%
    17:00 +43°C° 0 mm 5 mps 711 mmHg 4%
    18:00 +38°C° 0 mm 3 mps 711 mmHg 6%
    19:00 +34°C° 0 mm 2 mps 711 mmHg 7%
    20:00 +34°C° 0 mm 2 mps 711 mmHg 7%
    21:00 +32°C° 0 mm 2 mps 711 mmHg 7%
    22:00 +31°C° 0 mm 3 mps 712 mmHg 7%
    23:00 +31°C° 0 mm 3 mps 711 mmHg 8%
    Show more